QPF
0.00 0.00 0.00 0.00 0.00 0.00 0.00 0.00 0.00 0.00 0.00 0.00 0.00 0.00 0.00 0.00 0.00 0.00 0.00 0.00 0.01 0.01 0.03 0.03 0.04 0.05 0.10 0.14 0.16 0.19 0.25 0.25 0.20 0.18 0.15 0.14 0.14 0.11 0.08 0.07 0.06 0.04 0.03 0.04
0.00 0.00 0.00 0.00 0.00 0.00 0.00 0.00 0.00 0.00 0.00 0.00 0.00 0.00 0.00 0.01 0.00 0.00 0.00 0.00 0.01 0.01 0.02 0.03 0.03 0.05 0.09 0.12 0.13 0.14 0.17 0.20 0.16 0.15 0.15 0.14 0.13 0.09 0.07 0.05 0.05 0.03 0.03 0.04
0.00 0.00 0.00 0.00 0.00 0.00 0.00 0.00 0.00 0.00 0.00 0.00 0.00 0.00 0.00 0.01 0.01 0.01 0.00 0.00 0.00 0.01 0.02 0.03 0.03 0.05 0.10 0.14 0.14 0.14 0.15 0.17 0.17 0.18 0.16 0.14 0.13 0.10 0.08 0.06 0.04 0.03 0.03 0.02
0.00 0.00 0.00 0.00 0.00 0.00 0.00 0.00 0.00 0.00 0.00 0.00 0.01 0.01 0.01 0.02 0.02 0.01 0.01 0.00 0.01 0.00 0.01 0.02 0.02 0.04 0.06 0.10 0.14 0.15 0.14 0.17 0.17 0.15 0.12 0.09 0.08 0.08 0.06 0.05 0.04 0.05 0.02 0.02
0.00 0.00 0.00 0.00 0.00 0.00 0.00 0.00 0.00 0.00 0.00 0.00 0.01 0.01 0.01 0.01 0.03 0.02 0.01 0.01 0.01 0.00 0.00 0.01 0.01 0.02 0.05 0.08 0.11 0.14 0.16 0.18 0.18 0.16 0.14 0.13 0.10 0.09 0.08 0.08 0.07 0.07 0.04 0.02
0.00 0.00 0.00 0.00 0.00 0.00 0.00 0.00 0.00 0.00 0.01 0.04 0.03 0.01 0.02 0.02 0.03 0.01 0.00 0.01 0.00 0.00 0.00 0.01 0.02 0.03 0.05 0.06 0.10 0.13 0.17 0.18 0.18 0.16 0.14 0.13 0.12 0.12 0.11 0.10 0.08 0.07 0.04 0.03
0.00 0.00 0.00 0.00 0.00 0.00 0.00 0.00 0.00 0.01 0.05 0.07 0.04 0.02 0.01 0.00 0.00 0.00 0.00 0.00 0.00 0.00 0.01 0.02 0.03 0.03 0.04 0.05 0.08 0.11 0.14 0.17 0.17 0.14 0.11 0.11 0.12 0.10 0.09 0.09 0.06 0.06 0.04 0.03
0.00 0.00 0.00 0.00 0.00 0.00 0.00 0.00 0.00 0.01 0.04 0.07 0.07 0.06 0.04 0.01 0.00 0.00 0.00 0.00 0.00 0.00 0.01 0.03 0.03 0.02 0.03 0.05 0.07 0.10 0.13 0.16 0.18 0.14 0.13 0.10 0.08 0.08 0.09 0.09 0.06 0.05 0.03 0.02
0.00 0.00 0.00 0.00 0.00 0.00 0.00 0.00 0.00 0.00 0.00 0.02 0.03 0.04 0.04 0.02 0.01 0.00 0.00 0.00 0.00 0.00 0.00 0.02 0.03 0.02 0.02 0.04 0.05 0.08 0.10 0.14 0.16 0.15 0.12 0.09 0.06 0.07 0.10 0.09 0.06 0.04 0.03 0.03
0.00 0.00 0.00 0.00 0.00 0.00 0.00 0.00 0.00 0.00 0.00 0.01 0.04 0.05 0.07 0.04 0.01 0.01 0.00 0.00 0.00 0.00 0.00 0.01 0.02 0.02 0.02 0.03 0.04 0.06 0.07 0.09 0.12 0.15 0.12 0.09 0.10 0.07 0.09 0.09 0.08 0.07 0.06 0.05
0.00 0.00 0.00 0.00 0.00 0.00 0.00 0.00 0.00 0.00 0.00 0.00 0.03 0.07 0.08 0.04 0.03 0.02 0.00 0.00 0.00 0.00 0.00 0.00 0.00 0.01 0.02 0.02 0.03 0.04 0.04 0.05 0.07 0.09 0.10 0.11 0.10 0.08 0.08 0.09 0.07 0.07 0.07 0.07
0.00 0.00 0.00 0.00 0.00 0.00 0.00 0.00 0.00 0.00 0.00 0.00 0.01 0.04 0.05 0.04 0.04 0.01 0.00 0.00 0.00 0.00 0.00 0.00 0.00 0.00 0.01 0.02 0.02 0.02 0.03 0.03 0.05 0.06 0.07 0.08 0.11 0.11 0.09 0.08 0.06 0.06 0.07 0.07
0.00 0.00 0.00 0.00 0.00 0.00 0.00 0.00 0.00 0.00 0.00 0.00 0.00 0.02 0.04 0.02 0.03 0.01 0.00 0.00 0.00 0.00 0.00 0.00 0.00 0.00 0.01 0.01 0.02 0.02 0.02 0.03 0.04 0.04 0.05 0.07 0.11 0.11 0.10 0.08 0.06 0.06 0.06 0.05
0.00 0.00 0.00 0.00 0.00 0.01 0.01 0.00 0.00 0.00 0.00 0.00 0.00 0.02 0.04 0.06 0.04 0.03 0.02 0.01 0.00 0.00 0.00 0.00 0.00 0.00 0.01 0.02 0.02 0.03 0.03 0.03 0.03 0.05 0.06 0.06 0.08 0.10 0.10 0.07 0.05 0.05 0.05 0.05
0.00 0.00 0.00 0.00 0.00 0.02 0.03 0.02 0.01 0.00 0.00 0.00 0.00 0.01 0.01 0.03 0.04 0.05 0.03 0.01 0.00 0.00 0.00 0.00 0.00 0.00 0.01 0.01 0.02 0.02 0.03 0.03 0.05 0.08 0.08 0.08 0.08 0.07 0.07 0.07 0.07 0.07 0.06 0.06
0.00 0.00 0.00 0.00 0.01 0.02 0.02 0.02 0.01 0.00 0.00 0.00 0.00 0.00 0.01 0.02 0.03 0.04 0.03 0.02 0.01 0.00 0.00 0.00 0.00 0.01 0.01 0.01 0.01 0.02 0.03 0.04 0.06 0.07 0.09 0.10 0.10 0.10 0.10 0.09 0.08 0.08 0.08 0.10
0.00 0.00 0.00 0.00 0.00 0.01 0.01 0.00 0.00 0.00 0.00 0.00 0.00 0.00 0.01 0.01 0.02 0.03 0.04 0.03 0.02 0.01 0.00 0.00 0.01 0.01 0.01 0.01 0.02 0.02 0.02 0.05 0.07 0.09 0.11 0.11 0.11 0.11 0.09 0.10 0.10 0.11 0.12 0.12
0.00 0.00 0.00 0.00 0.00 0.01 0.00 0.00 0.00 0.00 0.00 0.00 0.00 0.00 0.00 0.01 0.02 0.03 0.04 0.04 0.05 0.04 0.02 0.02 0.04 0.03 0.03 0.02 0.03 0.03 0.04 0.06 0.07 0.08 0.10 0.12 0.12 0.12 0.12 0.12 0.12 0.11 0.11 0.11
0.00 0.01 0.01 0.00 0.00 0.00 0.00 0.00 0.00 0.00 0.00 0.00 0.00 0.00 0.01 0.01 0.01 0.03 0.02 0.02 0.07 0.06 0.03 0.04 0.05 0.03 0.04 0.04 0.04 0.05 0.06 0.09 0.10 0.11 0.12 0.12 0.13 0.15 0.14 0.13 0.11 0.10 0.10 0.09
0.02 0.02 0.02 0.01 0.01 0.01 0.01 0.00 0.00 0.00 0.01 0.01 0.00 0.01 0.03 0.05 0.05 0.06 0.05 0.02 0.03 0.04 0.04 0.04 0.04 0.04 0.06 0.07 0.06 0.06 0.08 0.11 0.13 0.14 0.15 0.15 0.16 0.16 0.14 0.12 0.11 0.11 0.11 0.09
0.04 0.04 0.04 0.03 0.03 0.02 0.01 0.00 0.00 0.02 0.05 0.02 0.01 0.01 0.03 0.09 0.08 0.07 0.07 0.05 0.03 0.02 0.03 0.04 0.05 0.06 0.09 0.09 0.08 0.10 0.10 0.10 0.12 0.14 0.14 0.13 0.12 0.11 0.10 0.09 0.08 0.08 0.07 0.05
0.06 0.05 0.05 0.05 0.04 0.03 0.01 0.00 0.02 0.05 0.04 0.02 0.01 0.02 0.04 0.07 0.08 0.08 0.07 0.06 0.04 0.04 0.04 0.03 0.04 0.05 0.08 0.08 0.07 0.07 0.08 0.09 0.10 0.09 0.09 0.10 0.11 0.10 0.09 0.08 0.07 0.06 0.05 0.04
0.04 0.05 0.06 0.05 0.05 0.05 0.02 0.01 0.02 0.02 0.02 0.02 0.03 0.04 0.08 0.09 0.08 0.08 0.07 0.07 0.06 0.05 0.06 0.06 0.05 0.05 0.05 0.05 0.05 0.04 0.05 0.05 0.06 0.08 0.08 0.07 0.07 0.06 0.06 0.06 0.05 0.05 0.04 0.03
0.05 0.04 0.05 0.05 0.04 0.04 0.02 0.02 0.03 0.03 0.03 0.03 0.03 0.05 0.06 0.08 0.07 0.09 0.07 0.07 0.07 0.06 0.07 0.08 0.07 0.06 0.06 0.06 0.06 0.05 0.04 0.04 0.05 0.06 0.06 0.05 0.04 0.03 0.02 0.02 0.02 0.01 0.01 0.01
0.05 0.05 0.07 0.09 0.09 0.08 0.05 0.05 0.04 0.05 0.06 0.05 0.05 0.06 0.08 0.09 0.07 0.06 0.05 0.05 0.05 0.04 0.04 0.05 0.07 0.07 0.06 0.07 0.07 0.07 0.07 0.06 0.05 0.05 0.05 0.03 0.03 0.02 0.02 0.01 0.01 0.01 0.01 0.01
0.05 0.07 0.09 0.09 0.10 0.10 0.07 0.04 0.04 0.06 0.07 0.07 0.08 0.09 0.10 0.11 0.08 0.06 0.06 0.05 0.04 0.04 0.03 0.04 0.04 0.05 0.06 0.06 0.06 0.05 0.04 0.03 0.03 0.02 0.02 0.01 0.01 0.02 0.02 0.02 0.02 0.02 0.01 0.01
MSLP
1006.89 1007.27 1007.42 1007.37 1007.17 1006.91 1006.64 1006.39 1006.18 1005.98 1005.76 1005.48 1005.14 1004.72 1004.28 1003.86 1003.54 1003.35 1003.35 1003.53 1003.88 1004.34 1004.86 1005.39 1005.90 1006.36 1006.78 1007.20 1007.63 1008.11 1008.65 1009.25 1009.88 1010.50 1011.09 1011.62 1012.06 1012.41 1012.70 1012.95 1013.18 1013.43 1013.71 1014.02
1007.24 1007.47 1007.46 1007.28 1007.02 1006.74 1006.52 1006.38 1006.31 1006.25 1006.15 1005.94 1005.62 1005.17 1004.64 1004.12 1003.67 1003.38 1003.30 1003.43 1003.76 1004.22 1004.76 1005.29 1005.78 1006.21 1006.58 1006.92 1007.30 1007.73 1008.26 1008.88 1009.57 1010.29 1010.98 1011.61 1012.14 1012.56 1012.88 1013.14 1013.36 1013.59 1013.84 1014.12
1007.34 1007.40 1007.24 1006.96 1006.65 1006.41 1006.30 1006.31 1006.42 1006.54 1006.59 1006.48 1006.18 1005.70 1005.08 1004.43 1003.84 1003.42 1003.23 1003.28 1003.57 1004.01 1004.54 1005.08 1005.55 1005.94 1006.27 1006.55 1006.87 1007.27 1007.78 1008.42 1009.17 1009.97 1010.77 1011.51 1012.14 1012.64 1013.01 1013.29 1013.52 1013.73 1013.96 1014.23
1007.12 1007.02 1006.74 1006.39 1006.09 1005.94 1005.97 1006.19 1006.52 1006.86 1007.07 1007.07 1006.81 1006.29 1005.58 1004.78 1004.04 1003.46 1003.13 1003.08 1003.30 1003.71 1004.23 1004.75 1005.22 1005.59 1005.87 1006.11 1006.38 1006.73 1007.22 1007.87 1008.66 1009.53 1010.42 1011.26 1011.99 1012.58 1013.03 1013.35 1013.60 1013.81 1014.04 1014.29
1006.59 1006.36 1005.99 1005.62 1005.37 1005.35 1005.58 1006.04 1006.62 1007.18 1007.57 1007.69 1007.46 1006.90 1006.09 1005.14 1004.22 1003.47 1002.99 1002.83 1002.96 1003.33 1003.83 1004.36 1004.83 1005.19 1005.45 1005.65 1005.87 1006.18 1006.64 1007.27 1008.07 1008.98 1009.94 1010.86 1011.69 1012.37 1012.89 1013.27 1013.56 1013.80 1014.03 1014.29
1005.84 1005.50 1005.08 1004.73 1004.59 1004.73 1005.18 1005.87 1006.69 1007.47 1008.03 1008.24 1008.04 1007.44 1006.53 1005.44 1004.35 1003.44 1002.81 1002.54 1002.60 1002.93 1003.42 1003.96 1004.45 1004.82 1005.08 1005.27 1005.45 1005.70 1006.11 1006.70 1007.48 1008.39 1009.38 1010.35 1011.24 1012.00 1012.60 1013.05 1013.40 1013.68 1013.94 1014.22
1004.97 1004.56 1004.14 1003.85 1003.83 1004.15 1004.80 1005.71 1006.74 1007.69 1008.38 1008.67 1008.48 1007.84 1006.84 1005.62 1004.40 1003.35 1002.61 1002.25 1002.25 1002.57 1003.07 1003.64 1004.16 1004.57 1004.85 1005.03 1005.19 1005.40 1005.74 1006.27 1006.98 1007.85 1008.82 1009.80 1010.73 1011.54 1012.20 1012.72 1013.13 1013.46 1013.77 1014.08
1004.13 1003.70 1003.31 1003.11 1003.21 1003.68 1004.51 1005.58 1006.75 1007.82 1008.58 1008.90 1008.71 1008.03 1006.96 1005.66 1004.35 1003.21 1002.40 1001.99 1001.97 1002.30 1002.84 1003.46 1004.05 1004.51 1004.83 1005.03 1005.17 1005.34 1005.62 1006.06 1006.68 1007.47 1008.38 1009.33 1010.24 1011.07 1011.77 1012.34 1012.80 1013.19 1013.55 1013.91
1003.43 1003.02 1002.70 1002.60 1002.82 1003.41 1004.34 1005.51 1006.74 1007.83 1008.60 1008.91 1008.70 1007.98 1006.87 1005.54 1004.19 1003.03 1002.20 1001.79 1001.80 1002.16 1002.76 1003.45 1004.12 1004.66 1005.05 1005.29 1005.44 1005.58 1005.79 1006.14 1006.66 1007.34 1008.15 1009.02 1009.89 1010.69 1011.40 1012.00 1012.50 1012.94 1013.34 1013.73
1002.94 1002.60 1002.38 1002.39 1002.70 1003.37 1004.33 1005.50 1006.70 1007.74 1008.44 1008.70 1008.44 1007.70 1006.58 1005.26 1003.95 1002.83 1002.04 1001.68 1001.74 1002.16 1002.83 1003.61 1004.36 1005.00 1005.47 1005.77 1005.95 1006.08 1006.25 1006.52 1006.94 1007.50 1008.19 1008.95 1009.73 1010.48 1011.16 1011.76 1012.28 1012.75 1013.18 1013.60
1002.70 1002.47 1002.37 1002.47 1002.86 1003.55 1004.48 1005.56 1006.64 1007.55 1008.13 1008.28 1007.96 1007.21 1006.13 1004.87 1003.64 1002.62 1001.93 1001.65 1001.79 1002.28 1003.02 1003.87 1004.71 1005.44 1005.99 1006.37 1006.61 1006.77 1006.93 1007.15 1007.48 1007.93 1008.49 1009.13 1009.80 1010.47 1011.10 1011.67 1012.19 1012.67 1013.12 1013.55
1002.66 1002.57 1002.60 1002.81 1003.25 1003.91 1004.75 1005.68 1006.57 1007.29 1007.70 1007.73 1007.34 1006.59 1005.57 1004.42 1003.32 1002.43 1001.86 1001.69 1001.90 1002.45 1003.24 1004.15 1005.05 1005.85 1006.49 1006.96 1007.28 1007.50 1007.68 1007.89 1008.16 1008.53 1008.98 1009.51 1010.07 1010.64 1011.20 1011.74 1012.23 1012.71 1013.16 1013.60
1002.76 1002.84 1003.01 1003.32 1003.78 1004.38 1005.09 1005.83 1006.49 1006.97 1007.19 1007.08 1006.63 1005.89 1004.95 1003.94 1003.00 1002.27 1001.83 1001.75 1002.03 1002.61 1003.42 1004.34 1005.27 1006.11 1006.83 1007.39 1007.80 1008.11 1008.35 1008.59 1008.85 1009.17 1009.55 1009.98 1010.45 1010.94 1011.43 1011.91 1012.39 1012.85 1013.31 1013.76
1002.95 1003.19 1003.50 1003.89 1004.36 1004.89 1005.44 1005.96 1006.38 1006.62 1006.63 1006.38 1005.89 1005.18 1004.34 1003.48 1002.71 1002.13 1001.82 1001.82 1002.13 1002.71 1003.48 1004.36 1005.27 1006.13 1006.89 1007.53 1008.05 1008.46 1008.80 1009.11 1009.41 1009.73 1010.07 1010.44 1010.84 1011.26 1011.70 1012.15 1012.61 1013.07 1013.54 1014.00
1003.19 1003.58 1004.01 1004.46 1004.92 1005.35 1005.74 1006.04 1006.21 1006.22 1006.05 1005.69 1005.15 1004.49 1003.77 1003.06 1002.46 1002.03 1001.83 1001.88 1002.18 1002.71 1003.40 1004.20 1005.05 1005.88 1006.66 1007.35 1007.96 1008.49 1008.95 1009.36 1009.74 1010.10 1010.45 1010.81 1011.18 1011.56 1011.97 1012.40 1012.86 1013.33 1013.82 1014.31
1003.48 1003.97 1004.48 1004.96 1005.39 1005.72 1005.94 1006.04 1005.99 1005.80 1005.46 1005.01 1004.46 1003.86 1003.26 1002.71 1002.27 1001.97 1001.85 1001.93 1002.20 1002.63 1003.21 1003.89 1004.63 1005.40 1006.16 1006.89 1007.58 1008.22 1008.81 1009.34 1009.82 1010.26 1010.66 1011.04 1011.41 1011.79 1012.19 1012.63 1013.10 1013.61 1014.13 1014.66
1003.83 1004.37 1004.90 1005.37 1005.73 1005.95 1006.02 1005.93 1005.69 1005.34 1004.89 1004.38 1003.85 1003.33 1002.85 1002.46 1002.16 1001.98 1001.93 1002.01 1002.22 1002.55 1002.99 1003.52 1004.13 1004.81 1005.53 1006.27 1007.02 1007.76 1008.46 1009.11 1009.71 1010.24 1010.71 1011.14 1011.55 1011.95 1012.37 1012.83 1013.34 1013.89 1014.46 1015.03
1004.25 1004.77 1005.26 1005.66 1005.93 1006.03 1005.95 1005.71 1005.33 1004.86 1004.34 1003.82 1003.34 1002.91 1002.58 1002.33 1002.18 1002.10 1002.11 1002.19 1002.34 1002.55 1002.85 1003.24 1003.71 1004.28 1004.94 1005.67 1006.46 1007.27 1008.07 1008.83 1009.53 1010.16 1010.71 1011.20 1011.65 1012.09 1012.54 1013.04 1013.58 1014.18 1014.80 1015.42
1004.73 1005.15 1005.54 1005.83 1005.98 1005.95 1005.74 1005.38 1004.91 1004.38 1003.84 1003.36 1002.95 1002.65 1002.46 1002.36 1002.34 1002.38 1002.44 1002.52 1002.63 1002.76 1002.94 1003.19 1003.54 1004.01 1004.60 1005.30 1006.10 1006.95 1007.81 1008.66 1009.44 1010.14 1010.76 1011.30 1011.79 1012.27 1012.76 1013.28 1013.86 1014.50 1015.16 1015.82
1005.21 1005.49 1005.73 1005.87 1005.88 1005.72 1005.41 1004.98 1004.46 1003.93 1003.43 1003.02 1002.73 1002.56 1002.52 1002.58 1002.70 1002.84 1002.97 1003.08 1003.16 1003.23 1003.33 1003.49 1003.75 1004.13 1004.66 1005.32 1006.10 1006.97 1007.86 1008.74 1009.57 1010.31 1010.96 1011.54 1012.06 1012.55 1013.06 1013.60 1014.20 1014.86 1015.54 1016.24
1005.62 1005.71 1005.78 1005.76 1005.63 1005.37 1004.99 1004.53 1004.02 1003.54 1003.13 1002.83 1002.68 1002.67 1002.79 1003.00 1003.26 1003.51 1003.72 1003.87 1003.97 1004.03 1004.08 1004.19 1004.39 1004.71 1005.19 1005.81 1006.56 1007.41 1008.29 1009.17 1009.99 1010.74 1011.39 1011.96 1012.48 1012.97 1013.47 1014.01 1014.61 1015.27 1015.97 1016.66
1005.88 1005.78 1005.66 1005.50 1005.25 1004.93 1004.52 1004.08 1003.64 1003.26 1002.98 1002.83 1002.84 1002.99 1003.27 1003.62 1004.01 1004.37 1004.67 1004.89 1005.03 1005.11 1005.18 1005.28 1005.45 1005.75 1006.19 1006.77 1007.48 1008.27 1009.11 1009.94 1010.72 1011.42 1012.04 1012.58 1013.06 1013.52 1013.99 1014.51 1015.09 1015.73 1016.42 1017.11
1005.91 1005.65 1005.39 1005.10 1004.79 1004.43 1004.06 1003.69 1003.36 1003.12 1003.00 1003.02 1003.20 1003.51 1003.94 1004.43 1004.93 1005.39 1005.79 1006.09 1006.29 1006.43 1006.54 1006.66 1006.85 1007.14 1007.56 1008.10 1008.75 1009.48 1010.24 1010.99 1011.69 1012.32 1012.86 1013.33 1013.75 1014.16 1014.59 1015.07 1015.62 1016.23 1016.90 1017.57
1005.72 1005.34 1004.98 1004.63 1004.30 1003.97 1003.67 1003.42 1003.24 1003.16 1003.22 1003.41 1003.74 1004.21 1004.76 1005.36 1005.96 1006.52 1006.99 1007.37 1007.66 1007.87 1008.04 1008.22 1008.44 1008.74 1009.14 1009.64 1010.23 1010.88 1011.54 1012.19 1012.78 1013.31 1013.76 1014.14 1014.50 1014.84 1015.22 1015.66 1016.17 1016.76 1017.39 1018.06
1005.36 1004.93 1004.53 1004.18 1003.88 1003.63 1003.44 1003.33 1003.31 1003.41 1003.63 1003.99 1004.46 1005.04 1005.69 1006.38 1007.05 1007.67 1008.21 1008.66 1009.02 1009.31 1009.55 1009.78 1010.05 1010.36 1010.75 1011.22 1011.74 1012.29 1012.85 1013.38 1013.86 1014.27 1014.63 1014.93 1015.22 1015.51 1015.85 1016.25 1016.74 1017.29 1017.91 1018.56
1004.96 1004.54 1004.17 1003.87 1003.64 1003.50 1003.44 1003.48 1003.62 1003.88 1004.25 1004.73 1005.31 1005.97 1006.68 1007.41 1008.11 1008.77 1009.35 1009.86 1010.27 1010.62 1010.93 1011.22 1011.52 1011.85 1012.23 1012.65 1013.10 1013.56 1014.01 1014.43 1014.80 1015.12 1015.39 1015.63 1015.86 1016.13 1016.44 1016.83 1017.29 1017.84 1018.45 1019.08
Thickness
5814 5801 5797 5808 5819 5820 5821 5819 5818 5830 5849 5839 5832 5832 5836 5840 5835 5825 5817 5809 5799 5791 5787 5781 5774 5768 5760 5755 5751 5746 5740 5738 5736 5734 5733 5733 5734 5737 5739 5739 5739 5740 5741 5740
5800 5797 5813 5824 5827 5825 5820 5813 5816 5830 5844 5837 5830 5829 5835 5832 5829 5824 5817 5810 5801 5792 5784 5778 5772 5765 5758 5752 5749 5744 5740 5737 5734 5733 5734 5734 5734 5735 5737 5738 5737 5738 5739 5739
5793 5810 5828 5821 5816 5813 5814 5812 5814 5819 5830 5835 5825 5813 5816 5825 5825 5821 5820 5814 5807 5795 5784 5777 5771 5765 5759 5752 5748 5745 5740 5737 5735 5734 5733 5733 5732 5732 5733 5733 5735 5737 5738 5738
5804 5820 5822 5817 5813 5813 5804 5824 5823 5819 5811 5807 5811 5785 5802 5810 5806 5806 5809 5810 5805 5799 5788 5778 5771 5765 5759 5754 5751 5746 5741 5738 5736 5734 5733 5731 5729 5728 5731 5732 5733 5735 5736 5737
5804 5817 5814 5810 5816 5819 5815 5830 5825 5818 5809 5799 5801 5787 5797 5806 5795 5796 5807 5809 5805 5801 5792 5781 5774 5767 5761 5756 5751 5746 5741 5737 5736 5734 5733 5732 5730 5731 5732 5732 5731 5732 5734 5736
5814 5831 5828 5823 5830 5829 5826 5820 5816 5811 5800 5773 5787 5781 5786 5803 5803 5806 5813 5813 5807 5802 5793 5783 5776 5768 5761 5756 5750 5745 5740 5736 5735 5733 5732 5731 5730 5731 5729 5728 5728 5729 5731 5733
5796 5813 5829 5833 5816 5822 5819 5796 5776 5771 5765 5761 5775 5772 5788 5816 5825 5826 5820 5815 5810 5803 5792 5782 5774 5766 5760 5755 5750 5745 5739 5735 5734 5733 5731 5731 5731 5730 5729 5728 5728 5729 5730 5731
5784 5789 5818 5826 5815 5806 5811 5802 5773 5757 5757 5754 5754 5748 5780 5824 5829 5833 5829 5821 5812 5802 5794 5783 5775 5768 5761 5755 5751 5746 5740 5736 5734 5732 5731 5732 5731 5730 5730 5730 5730 5730 5731 5732
5793 5799 5831 5836 5833 5819 5802 5803 5814 5794 5781 5768 5763 5766 5785 5814 5817 5824 5822 5816 5808 5802 5795 5785 5777 5769 5763 5757 5752 5747 5741 5737 5734 5733 5731 5730 5731 5730 5730 5730 5731 5731 5732 5732
5803 5791 5816 5830 5829 5825 5819 5814 5804 5789 5767 5760 5769 5763 5763 5777 5799 5811 5813 5811 5808 5804 5796 5788 5780 5772 5765 5759 5753 5748 5743 5738 5735 5733 5731 5730 5730 5730 5730 5730 5730 5731 5731 5730
5806 5787 5798 5812 5804 5803 5808 5802 5798 5795 5792 5768 5754 5755 5781 5781 5792 5801 5810 5813 5810 5805 5798 5790 5782 5775 5768 5761 5754 5748 5743 5738 5735 5733 5731 5730 5729 5729 5729 5729 5729 5729 5729 5728
5803 5791 5782 5798 5821 5827 5818 5809 5801 5778 5777 5784 5772 5764 5796 5792 5797 5804 5811 5815 5813 5808 5801 5793 5784 5776 5768 5761 5756 5750 5745 5740 5736 5734 5731 5730 5729 5728 5727 5727 5727 5727 5726 5726
5788 5777 5761 5770 5790 5809 5807 5811 5809 5802 5790 5780 5773 5766 5798 5797 5800 5809 5812 5813 5810 5805 5799 5792 5784 5776 5769 5763 5758 5752 5747 5742 5739 5736 5732 5730 5727 5726 5725 5725 5725 5724 5723 5722
5780 5767 5761 5758 5767 5777 5778 5788 5797 5793 5782 5780 5783 5778 5785 5789 5793 5797 5801 5803 5805 5801 5796 5790 5782 5775 5770 5764 5759 5754 5749 5746 5742 5737 5733 5729 5727 5725 5724 5723 5722 5721 5720 5719
5771 5755 5762 5772 5780 5777 5768 5768 5775 5778 5785 5782 5787 5787 5786 5789 5791 5793 5798 5800 5799 5795 5792 5787 5780 5774 5769 5764 5760 5755 5751 5748 5744 5738 5734 5729 5726 5724 5722 5721 5719 5718 5717 5715
5759 5747 5750 5753 5768 5771 5762 5766 5768 5772 5782 5786 5791 5790 5801 5799 5796 5794 5795 5795 5790 5790 5788 5784 5779 5773 5768 5763 5759 5755 5750 5747 5743 5737 5733 5729 5726 5722 5719 5718 5716 5714 5712 5710
5744 5736 5730 5733 5753 5755 5748 5765 5767 5770 5781 5783 5779 5788 5797 5792 5789 5786 5788 5787 5785 5787 5785 5780 5775 5771 5767 5763 5759 5753 5749 5745 5740 5734 5731 5727 5723 5719 5717 5715 5711 5709 5706 5704
5731 5725 5724 5725 5727 5713 5752 5785 5783 5777 5781 5786 5785 5788 5789 5786 5787 5787 5786 5784 5783 5780 5779 5778 5773 5769 5766 5762 5757 5751 5746 5741 5736 5731 5727 5724 5719 5715 5711 5709 5705 5702 5700 5697
5735 5721 5713 5714 5714 5724 5753 5771 5773 5766 5763 5774 5773 5775 5778 5782 5780 5778 5783 5785 5780 5777 5776 5773 5770 5767 5762 5757 5752 5746 5740 5735 5729 5725 5721 5718 5715 5710 5704 5700 5697 5694 5691 5687
5727 5719 5706 5705 5700 5704 5737 5764 5772 5762 5743 5756 5760 5758 5761 5766 5753 5753 5769 5772 5772 5769 5767 5764 5762 5759 5753 5749 5745 5738 5731 5726 5721 5718 5714 5711 5708 5702 5697 5692 5688 5684 5681 5676
5702 5700 5695 5695 5695 5712 5739 5754 5753 5725 5720 5741 5747 5747 5748 5745 5745 5748 5755 5755 5756 5756 5755 5753 5750 5745 5741 5738 5734 5727 5722 5717 5714 5711 5706 5702 5698 5693 5688 5683 5679 5675 5671 5665
5689 5686 5687 5690 5687 5698 5725 5731 5719 5714 5728 5733 5735 5737 5736 5735 5737 5739 5737 5738 5738 5738 5738 5737 5734 5730 5728 5726 5723 5715 5710 5707 5705 5701 5696 5691 5687 5684 5678 5673 5668 5664 5659 5654
5689 5688 5687 5689 5691 5704 5713 5713 5717 5721 5719 5722 5725 5728 5728 5723 5721 5722 5721 5721 5721 5721 5720 5720 5718 5714 5712 5711 5709 5702 5697 5695 5692 5687 5682 5678 5674 5669 5665 5661 5656 5652 5648 5645
5682 5690 5687 5684 5692 5697 5702 5706 5708 5710 5710 5714 5717 5718 5718 5713 5710 5707 5706 5704 5703 5703 5703 5702 5701 5697 5694 5693 5691 5688 5685 5682 5678 5672 5667 5663 5658 5654 5649 5646 5642 5637 5634 5631
5672 5674 5672 5674 5681 5685 5689 5691 5695 5698 5702 5704 5705 5705 5704 5701 5697 5695 5691 5689 5688 5687 5686 5686 5683 5679 5676 5675 5674 5672 5670 5667 5663 5658 5653 5649 5644 5638 5631 5626 5621 5617 5611 5611
5667 5663 5660 5662 5669 5669 5671 5679 5684 5684 5686 5688 5687 5686 5686 5686 5683 5680 5676 5674 5673 5671 5670 5669 5666 5664 5661 5660 5658 5656 5655 5652 5648 5644 5640 5636 5632 5626 5620 5613 5604 5597 5595 5593